Track FLOCK 3P 67 now! 10-day predictions FLOCK 3P 67 is classified as:
1 42002U 17008BG 22139.43654396 .00079913 00000-0 17357-2 0 9995 2 42002 97.2834 211.6387 0003417 307.3190 52.7747 15.44064152292983